EW2825 Weather Reports


Display with metric or nautical units.
time (UTC)temp
F
wind
direction
speed
MPH
gust
MPH
rain 1hr
in
rain 24hr
in
rain mn
in
humidity
%
barometer
mb
20260504184513 61 283 4.0 0.0 0.00 0.00 0.00 52 1002.5
20260504183012 60 338 5.0 0.0 0.00 0.00 0.00 53 1002.6
20260504181512 59 296 6.0 0.0 0.00 0.00 0.00 54 1003.0
20260504180008 58 313 3.0 0.0 0.00 0.00 0.00 58 1003.2
20260504174506 56 350 3.0 0.0 0.00 0.00 0.00 65 1003.6
20260504173005 55 338 3.0 0.0 0.00 0.00 0.00 65 1003.6
20260504171504 55 49 2.0 0.0 0.00 0.00 0.00 64 1003.4
20260504150112 58 27 2.0 0.0 0.00 0.00 0.00 53 1002.2
20260504081508 31 254 0.0 0.0 0.00 0.00 0.00 94 1005.1
20260504044602 33 254 0.0 0.0 0.00 0.00 0.00 89 1005.1
20260504043057 33 254 0.0 0.0 0.00 0.00 0.00 90 1005.1
20260504041552 33 254 0.0 0.0 0.00 0.00 0.00 90 1005.0
20260504040104 33 254 0.0 0.0 0.00 0.00 0.00 88 1005.0
20260504034609 34 254 1.0 0.0 0.00 0.00 0.00 87 1004.8
20260504033043 34 254 0.0 0.0 0.00 0.00 0.00 86 1004.6
20260504031541 35 254 0.0 0.0 0.00 0.00 0.00 85 1004.6
20260504030046 36 254 0.0 0.0 0.00 0.00 0.11 82 1004.6
20260504024536 36 254 0.0 0.0 0.00 0.00 0.11 83 1004.6
20260504023034 37 254 0.0 0.0 0.00 0.00 0.11 81 1004.7
20260504021529 38 254 0.0 0.0 0.00 0.00 0.11 77 1004.6
20260504020029 39 254 0.0 0.0 0.00 0.00 0.11 74 1004.6
20260504014528 39 254 0.0 0.0 0.00 0.00 0.11 72 1004.8
20260504013036 39 254 0.0 0.0 0.00 0.00 0.11 74 1004.7
20260504011527 41 254 1.0 0.0 0.00 0.00 0.11 71 1004.5
20260504010027 41 281 0.0 0.0 0.00 0.00 0.11 67 1004.5
20260504004526 41 281 1.0 0.0 0.00 0.00 0.11 70 1004.4
20260504003026 42 281 1.0 0.0 0.00 0.00 0.11 70 1004.2
20260504001525 42 86 1.0 0.0 0.00 0.00 0.11 66 1004.0
20260504000025 43 252 2.0 0.0 0.00 0.00 0.11 61 1003.9
20260503234526 43 319 1.0 0.0 0.00 0.00 0.11 62 1003.8
20260503233024 44 348 1.0 0.0 0.00 0.00 0.11 61 1003.8
20260503231524 44 5 1.0 0.0 0.00 0.00 0.11 61 1003.8
20260503230023 44 57 2.0 0.0 0.00 0.00 0.11 60 1003.8
20260503224523 45 290 2.0 0.0 0.00 0.00 0.11 60 1003.6
20260503223022 45 106 2.0 0.0 0.00 0.00 0.11 57 1003.5
20260503221521 46 307 2.0 0.0 0.00 0.00 0.10 59 1003.3
20260503220022 46 344 2.0 0.0 0.00 0.00 0.10 56 1003.3
20260503214521 46 321 2.0 0.0 0.00 0.00 0.10 53 1003.2
20260503213021 47 44 2.0 0.0 0.00 0.00 0.10 53 1003.2
20260503211532 47 60 3.0 0.0 0.00 0.00 0.10 56 1003.2
20260503210018 46 309 3.0 0.0 0.00 0.00 0.10 59 1003.2
20260503204518 47 106 2.0 0.0 0.00 0.00 0.10 57 1003.0
20260503203017 47 155 2.0 0.0 0.00 0.00 0.10 57 1002.7
20260503201516 46 54 1.0 0.0 0.00 0.00 0.10 63 1003.1
20260503200016 46 355 3.0 0.0 0.00 0.00 0.10 60 1003.2
20260503194516 47 350 3.0 0.0 0.00 0.00 0.10 60 1003.1
20260503193015 47 61 4.0 0.0 0.00 0.00 0.10 56 1002.8
20260503191513 47 44 4.0 0.0 0.00 0.00 0.10 61 1002.8
20260503190036 47 32 5.0 0.0 0.00 0.00 0.10 62 1003.0